Time,TemperatureF,DewpointF,PressureIn,WindDirection,WindDirectionDegrees,WindSpeedMPH,WindSpeedGustMPH,Humidity,HourlyPrecipIn,Conditions,Clouds,dailyrainin,SoftwareType,DateUTC
2013-05-05 00:01:00,56.0,53.0,29.80,SSE,157,0.0,0.0,89,0.00,,,0.00,,2013-05-05 07:01:00,
2013-05-05 00:11:00,56.0,53.0,29.80,SSE,157,0.0,0.0,89,0.00,,,0.00,,2013-05-05 07:11:00,
2013-05-05 00:21:00,55.0,52.0,29.81,South,187,0.0,1.0,88,0.00,,,0.00,,2013-05-05 07:21:00,
2013-05-05 00:31:00,55.0,52.0,29.81,South,187,0.0,1.0,88,0.00,,,0.00,,2013-05-05 07:31:00,
2013-05-05 00:42:00,55.0,52.0,29.81,South,187,0.0,1.0,88,0.00,,,0.00,,2013-05-05 07:42:00,
2013-05-05 00:52:00,55.0,52.0,29.81,South,187,0.0,0.0,88,0.00,,,0.00,,2013-05-05 07:52:00,
2013-05-05 01:02:00,55.0,51.0,29.81,South,187,0.0,1.0,87,0.00,,,0.00,,2013-05-05 08:02:00,
2013-05-05 01:11:00,55.0,51.0,29.81,South,187,0.0,1.0,87,0.00,,,0.00,,2013-05-05 08:11:00,
2013-05-05 01:21:00,55.0,51.0,29.81,South,188,0.0,1.0,87,0.00,,,0.00,,2013-05-05 08:21:00,
2013-05-05 01:31:00,55.0,52.0,29.81,South,190,0.0,1.0,88,0.00,,,0.00,,2013-05-05 08:31:00,
2013-05-05 01:42:00,55.0,52.0,29.81,South,190,0.0,1.0,88,0.00,,,0.00,,2013-05-05 08:42:00,
2013-05-05 01:53:00,55.0,52.0,29.81,South,190,0.0,0.0,88,0.00,,,0.00,,2013-05-05 08:53:00,
2013-05-05 02:01:00,55.0,52.0,29.80,South,190,0.0,2.0,88,0.00,,,0.00,,2013-05-05 09:01:00,
2013-05-05 02:11:00,55.0,52.0,29.80,South,190,0.0,2.0,88,0.00,,,0.00,,2013-05-05 09:11:00,
2013-05-05 02:21:00,55.0,51.0,29.80,South,190,0.0,0.0,87,0.00,,,0.00,,2013-05-05 09:21:00,
2013-05-05 02:32:00,55.0,51.0,29.80,South,191,0.0,2.0,87,0.00,,,0.00,,2013-05-05 09:32:00,
2013-05-05 02:42:00,55.0,51.0,29.80,South,191,0.0,2.0,87,0.00,,,0.00,,2013-05-05 09:42:00,
2013-05-05 02:52:00,55.0,51.0,29.80,South,191,0.0,0.0,87,0.00,,,0.00,,2013-05-05 09:52:00,
2013-05-05 03:02:00,55.0,51.0,29.80,SSW,192,0.0,0.0,87,0.00,,,0.00,,2013-05-05 10:02:00,
2013-05-05 03:12:00,55.0,51.0,29.80,SSW,192,0.0,0.0,87,0.00,,,0.00,,2013-05-05 10:12:00,
2013-05-05 03:22:00,54.0,51.0,29.80,South,191,0.0,0.0,88,0.00,,,0.00,,2013-05-05 10:22:00,
2013-05-05 03:32:00,54.0,51.0,29.80,SSW,192,0.0,0.0,88,0.00,,,0.00,,2013-05-05 10:32:00,
2013-05-05 03:42:00,54.0,51.0,29.80,SSW,192,0.0,0.0,88,0.00,,,0.00,,2013-05-05 10:42:00,
2013-05-05 03:52:00,54.0,51.0,29.80,SSW,192,0.0,2.0,88,0.00,,,0.00,,2013-05-05 10:52:00,
2013-05-05 04:01:00,54.0,51.0,29.80,South,191,0.0,0.0,88,0.00,,,0.00,,2013-05-05 11:01:00,
2013-05-05 04:11:00,54.0,51.0,29.80,South,191,0.0,0.0,88,0.00,,,0.00,,2013-05-05 11:11:00,
2013-05-05 04:21:00,54.0,50.0,29.80,SSW,192,0.0,1.0,87,0.00,,,0.00,,2013-05-05 11:21:00,
2013-05-05 04:32:00,54.0,51.0,29.80,SSW,192,0.0,0.0,88,0.00,,,0.00,,2013-05-05 11:32:00,
2013-05-05 04:42:00,54.0,51.0,29.80,SSW,192,0.0,0.0,88,0.00,,,0.00,,2013-05-05 11:42:00,
2013-05-05 04:52:00,54.0,51.0,29.80,SSW,193,0.0,1.0,88,0.00,,,0.00,,2013-05-05 11:52:00,
2013-05-05 05:01:00,54.0,51.0,29.79,SSW,194,0.0,2.0,88,0.00,,,0.00,,2013-05-05 12:01:00,
2013-05-05 05:11:00,54.0,51.0,29.79,SSW,194,0.0,2.0,88,0.00,,,0.00,,2013-05-05 12:11:00,
2013-05-05 05:21:00,54.0,51.0,29.79,SSW,194,0.0,1.0,88,0.00,,,0.00,,2013-05-05 12:21:00,
2013-05-05 05:31:00,54.0,51.0,29.80,SSW,194,0.0,4.0,88,0.00,,,0.00,,2013-05-05 12:31:00,
2013-05-05 05:42:00,54.0,51.0,29.80,SSW,194,0.0,4.0,88,0.00,,,0.00,,2013-05-05 12:42:00,
2013-05-05 05:52:00,54.0,51.0,29.80,SSW,194,0.0,0.0,88,0.00,,,0.00,,2013-05-05 12:52:00,
2013-05-05 06:01:00,54.0,51.0,29.80,SSW,197,0.0,3.0,88,0.00,,,0.00,,2013-05-05 13:01:00,
2013-05-05 06:11:00,54.0,51.0,29.80,SSW,197,0.0,3.0,88,0.00,,,0.00,,2013-05-05 13:11:00,
2013-05-05 06:21:00,54.0,50.0,29.81,SSW,196,0.0,0.0,87,0.00,,,0.00,,2013-05-05 13:21:00,
2013-05-05 06:32:00,54.0,50.0,29.81,SSW,198,0.0,0.0,87,0.00,,,0.00,,2013-05-05 13:32:00,
2013-05-05 06:42:00,54.0,50.0,29.81,SSW,198,0.0,0.0,87,0.00,,,0.00,,2013-05-05 13:42:00,
2013-05-05 06:52:00,55.0,50.0,29.82,SE,127,0.0,5.0,83,0.00,,,0.00,,2013-05-05 13:52:00,
2013-05-05 07:01:00,56.0,51.0,29.83,SE,140,5.0,10.0,82,0.00,,,0.00,,2013-05-05 14:01:00,
2013-05-05 07:11:00,56.0,51.0,29.83,SE,140,5.0,10.0,82,0.00,,,0.00,,2013-05-05 14:11:00,
2013-05-05 07:21:00,56.0,51.0,29.83,ESE,106,0.0,9.0,82,0.00,,,0.00,,2013-05-05 14:21:00,
2013-05-05 07:31:00,56.0,51.0,29.83,ESE,106,4.0,6.0,82,0.00,,,0.00,,2013-05-05 14:31:00,
2013-05-05 07:41:00,56.0,51.0,29.83,ESE,106,4.0,6.0,82,0.00,,,0.00,,2013-05-05 14:41:00,
2013-05-05 07:52:00,57.0,51.0,29.84,SE,127,3.0,9.0,79,0.00,,,0.00,,2013-05-05 14:52:00,
2013-05-05 08:01:00,57.0,51.0,29.84,ENE,78,3.0,6.0,79,0.00,,,0.00,,2013-05-05 15:01:00,
2013-05-05 08:11:00,57.0,51.0,29.84,ENE,78,3.0,6.0,79,0.00,,,0.00,,2013-05-05 15:11:00,
2013-05-05 08:21:00,57.0,51.0,29.84,ESE,106,1.0,5.0,79,0.00,,,0.00,,2013-05-05 15:21:00,
2013-05-05 08:32:00,57.0,50.0,29.85,ESE,105,1.0,5.0,78,0.00,,,0.00,,2013-05-05 15:32:00,
2013-05-05 08:42:00,57.0,50.0,29.85,ESE,105,1.0,5.0,78,0.00,,,0.00,,2013-05-05 15:42:00,
2013-05-05 08:53:00,57.0,50.0,29.85,ENE,60,0.0,8.0,78,0.00,,,0.00,,2013-05-05 15:53:00,
2013-05-05 09:02:00,58.0,50.0,29.85,SSE,167,0.0,5.0,76,0.00,,,0.00,,2013-05-05 16:02:00,
2013-05-05 09:12:00,58.0,50.0,29.85,SSE,167,0.0,5.0,76,0.00,,,0.00,,2013-05-05 16:12:00,
2013-05-05 09:22:00,59.0,51.0,29.86,ESE,113,5.0,7.0,74,0.00,,,0.00,,2013-05-05 16:22:00,
2013-05-05 09:32:00,58.0,50.0,29.86,SSE,160,0.0,9.0,74,0.00,,,0.00,,2013-05-05 16:32:00,
2013-05-05 09:42:00,58.0,50.0,29.86,SSE,160,0.0,9.0,74,0.00,,,0.00,,2013-05-05 16:42:00,
2013-05-05 09:52:00,59.0,50.0,29.86,ENE,64,1.0,7.0,73,0.00,,,0.00,,2013-05-05 16:52:00,
2013-05-05 10:01:00,60.0,51.0,29.86,SW,215,0.0,6.0,71,0.00,,,0.00,,2013-05-05 17:01:00,
2013-05-05 10:12:00,60.0,51.0,29.86,SW,215,0.0,6.0,71,0.00,,,0.00,,2013-05-05 17:12:00,
2013-05-05 10:23:00,60.0,51.0,29.86,NE,55,1.0,4.0,72,0.00,,,0.00,,2013-05-05 17:23:00,
2013-05-05 10:31:00,60.0,51.0,29.87,SSE,164,2.0,9.0,71,0.00,,,0.00,,2013-05-05 17:31:00,
2013-05-05 10:41:00,60.0,51.0,29.87,SSE,164,2.0,9.0,71,0.00,,,0.00,,2013-05-05 17:41:00,
2013-05-05 10:52:00,59.0,51.0,29.87,ESE,108,0.0,4.0,74,0.00,,,0.00,,2013-05-05 17:52:00,
2013-05-05 11:01:00,60.0,51.0,29.88,ESE,117,3.0,9.0,73,0.00,,,0.00,,2013-05-05 18:01:00,
2013-05-05 11:11:00,60.0,51.0,29.88,ESE,117,3.0,9.0,73,0.00,,,0.00,,2013-05-05 18:11:00,
2013-05-05 11:21:00,60.0,51.0,29.88,ENE,62,4.0,7.0,72,0.00,,,0.00,,2013-05-05 18:21:00,
2013-05-05 11:31:00,61.0,52.0,29.88,SSE,163,2.0,7.0,71,0.00,,,0.00,,2013-05-05 18:31:00,
2013-05-05 11:41:00,61.0,52.0,29.88,SSE,163,2.0,7.0,71,0.00,,,0.00,,2013-05-05 18:41:00,
2013-05-05 11:52:00,60.0,51.0,29.88,ESE,117,2.0,9.0,72,0.00,,,0.00,,2013-05-05 18:52:00,
2013-05-05 12:01:00,61.0,52.0,29.88,WSW,244,0.0,13.0,71,0.00,,,0.00,,2013-05-05 19:01:00,
2013-05-05 12:11:00,61.0,52.0,29.88,WSW,244,0.0,13.0,71,0.00,,,0.00,,2013-05-05 19:11:00,
2013-05-05 12:21:00,61.0,50.0,29.88,NE,42,3.0,10.0,68,0.00,,,0.00,,2013-05-05 19:21:00,
2013-05-05 12:32:00,61.0,51.0,29.88,NE,50,2.0,5.0,69,0.00,,,0.00,,2013-05-05 19:32:00,
2013-05-05 12:41:00,61.0,51.0,29.88,NE,50,2.0,5.0,69,0.00,,,0.00,,2013-05-05 19:41:00,
2013-05-05 12:52:00,60.0,51.0,29.88,SSE,150,2.0,5.0,71,0.00,,,0.00,,2013-05-05 19:52:00,
2013-05-05 13:01:00,61.0,51.0,29.88,WSW,258,0.0,6.0,70,0.00,,,0.00,,2013-05-05 20:01:00,
2013-05-05 13:11:00,61.0,51.0,29.88,WSW,258,0.0,6.0,70,0.00,,,0.00,,2013-05-05 20:11:00,
2013-05-05 13:21:00,61.0,52.0,29.88,SE,132,2.0,7.0,71,0.00,,,0.00,,2013-05-05 20:21:00,
2013-05-05 13:31:00,61.0,51.0,29.88,NNE,26,0.0,5.0,70,0.00,,,0.00,,2013-05-05 20:31:00,
2013-05-05 13:41:00,61.0,51.0,29.88,NNE,26,0.0,5.0,70,0.00,,,0.00,,2013-05-05 20:41:00,
2013-05-05 13:52:00,61.0,51.0,29.88,ENE,57,0.0,10.0,70,0.00,,,0.00,,2013-05-05 20:52:00,
2013-05-05 14:01:00,62.0,51.0,29.87,NE,44,3.0,5.0,67,0.00,,,0.00,,2013-05-05 21:01:00,
2013-05-05 14:11:00,62.0,51.0,29.87,NE,44,3.0,5.0,67,0.00,,,0.00,,2013-05-05 21:11:00,
2013-05-05 14:21:00,63.0,51.0,29.88,East,94,3.0,6.0,66,0.00,,,0.00,,2013-05-05 21:21:00,
2013-05-05 14:32:00,62.0,50.0,29.88,SE,137,1.0,9.0,65,0.00,,,0.00,,2013-05-05 21:32:00,
2013-05-05 14:42:00,62.0,50.0,29.88,SE,137,1.0,9.0,65,0.00,,,0.00,,2013-05-05 21:42:00,
2013-05-05 14:53:00,61.0,50.0,29.88,ENE,61,2.0,8.0,68,0.00,,,0.00,,2013-05-05 21:53:00,
2013-05-05 15:02:00,62.0,52.0,29.87,SE,142,1.0,5.0,69,0.00,,,0.00,,2013-05-05 22:02:00,
2013-05-05 15:12:00,62.0,52.0,29.87,SE,142,1.0,5.0,69,0.00,,,0.00,,2013-05-05 22:12:00,
2013-05-05 15:22:00,62.0,52.0,29.87,WNW,293,1.0,5.0,70,0.00,,,0.00,,2013-05-05 22:22:00,
2013-05-05 15:33:00,62.0,53.0,29.87,SSW,194,0.0,6.0,72,0.00,,,0.00,,2013-05-05 22:33:00,
2013-05-05 15:41:00,62.0,53.0,29.87,SSW,194,0.0,6.0,72,0.00,,,0.00,,2013-05-05 22:41:00,
2013-05-05 15:52:00,65.0,53.0,29.85,WNW,293,2.0,7.0,66,0.00,,,0.00,,2013-05-05 22:52:00,
2013-05-05 16:02:00,65.0,53.0,29.85,ESE,115,3.0,7.0,66,0.00,,,0.00,,2013-05-05 23:02:00,
2013-05-05 16:11:00,65.0,53.0,29.85,ESE,115,3.0,7.0,66,0.00,,,0.00,,2013-05-05 23:11:00,
2013-05-05 16:21:00,64.0,53.0,29.85,WSW,252,2.0,12.0,67,0.00,,,0.00,,2013-05-05 23:21:00,
2013-05-05 16:31:00,64.0,52.0,29.86,SSW,205,2.0,6.0,66,0.00,,,0.00,,2013-05-05 23:31:00,
2013-05-05 16:41:00,64.0,52.0,29.86,SSW,205,2.0,6.0,66,0.00,,,0.00,,2013-05-05 23:41:00,
2013-05-05 16:52:00,63.0,52.0,29.86,SW,224,1.0,11.0,68,0.00,,,0.00,,2013-05-05 23:52:00,
2013-05-05 17:01:00,63.0,52.0,29.86,East,86,3.0,10.0,67,0.00,,,0.00,,2013-05-06 00:01:00,
2013-05-05 17:11:00,63.0,52.0,29.86,East,86,3.0,10.0,67,0.00,,,0.00,,2013-05-06 00:11:00,
2013-05-05 17:21:00,62.0,52.0,29.86,SSW,205,1.0,6.0,70,0.00,,,0.00,,2013-05-06 00:21:00,
2013-05-05 17:31:00,62.0,52.0,29.86,WSW,250,1.0,6.0,70,0.00,,,0.00,,2013-05-06 00:31:00,
2013-05-05 17:41:00,62.0,52.0,29.86,WSW,250,1.0,6.0,70,0.00,,,0.00,,2013-05-06 00:41:00,
2013-05-05 17:51:00,61.0,52.0,29.86,SW,230,0.0,10.0,71,0.00,,,0.00,,2013-05-06 00:51:00,
2013-05-05 18:01:00,60.0,51.0,29.86,SSE,168,2.0,7.0,73,0.00,,,0.00,,2013-05-06 01:01:00,
2013-05-05 18:11:00,60.0,51.0,29.86,SSE,168,2.0,7.0,73,0.00,,,0.00,,2013-05-06 01:11:00,
2013-05-05 18:21:00,61.0,52.0,29.86,East,92,1.0,6.0,73,0.00,,,0.00,,2013-05-06 01:21:00,
2013-05-05 18:31:00,60.0,51.0,29.86,NE,54,3.0,9.0,73,0.00,,,0.00,,2013-05-06 01:31:00,
2013-05-05 18:41:00,60.0,51.0,29.86,NE,54,3.0,9.0,73,0.00,,,0.00,,2013-05-06 01:41:00,
2013-05-05 18:52:00,60.0,52.0,29.86,ESE,102,3.0,6.0,74,0.00,,,0.00,,2013-05-06 01:52:00,
2013-05-05 19:01:00,59.0,51.0,29.86,East,99,0.0,5.0,75,0.00,,,0.00,,2013-05-06 02:01:00,
2013-05-05 19:11:00,59.0,51.0,29.86,East,99,0.0,5.0,75,0.00,,,0.00,,2013-05-06 02:11:00,
2013-05-05 19:21:00,59.0,52.0,29.87,West,267,0.0,5.0,77,0.00,,,0.00,,2013-05-06 02:21:00,
2013-05-05 19:31:00,58.0,51.0,29.87,ENE,61,1.0,4.0,77,0.00,,,0.00,,2013-05-06 02:31:00,
2013-05-05 19:42:00,58.0,51.0,29.87,ENE,61,1.0,4.0,77,0.00,,,0.00,,2013-05-06 02:42:00,
2013-05-05 19:51:00,58.0,51.0,29.87,ESE,109,2.0,7.0,78,0.00,,,0.00,,2013-05-06 02:51:00,
2013-05-05 20:01:00,58.0,51.0,29.87,ESE,105,2.0,6.0,78,0.00,,,0.00,,2013-05-06 03:01:00,
2013-05-05 20:11:00,58.0,51.0,29.87,ESE,105,2.0,6.0,78,0.00,,,0.00,,2013-05-06 03:11:00,
2013-05-05 20:22:00,58.0,52.0,29.88,SW,220,0.0,1.0,79,0.00,,,0.00,,2013-05-06 03:22:00,
2013-05-05 20:32:00,58.0,52.0,29.88,SW,223,0.0,4.0,79,0.00,,,0.00,,2013-05-06 03:32:00,
2013-05-05 20:42:00,58.0,52.0,29.88,SW,223,0.0,4.0,79,0.00,,,0.00,,2013-05-06 03:42:00,
2013-05-05 20:52:00,57.0,51.0,29.88,SSE,164,1.0,5.0,79,0.00,,,0.00,,2013-05-06 03:52:00,
2013-05-05 21:02:00,57.0,51.0,29.88,NE,53,1.0,5.0,80,0.00,,,0.00,,2013-05-06 04:02:00,
2013-05-05 21:12:00,57.0,51.0,29.88,NE,53,1.0,5.0,80,0.00,,,0.00,,2013-05-06 04:12:00,
2013-05-05 21:23:00,57.0,51.0,29.89,NNE,22,0.0,3.0,81,0.00,,,0.00,,2013-05-06 04:23:00,
2013-05-05 21:32:00,57.0,51.0,29.89,ENE,76,1.0,3.0,81,0.00,,,0.00,,2013-05-06 04:32:00,
2013-05-05 21:42:00,57.0,51.0,29.89,ENE,76,1.0,3.0,81,0.00,,,0.00,,2013-05-06 04:42:00,
2013-05-05 21:52:00,57.0,52.0,29.90,East,101,0.0,4.0,82,0.00,,,0.00,,2013-05-06 04:52:00,
2013-05-05 22:02:00,57.0,52.0,29.90,ENE,70,0.0,5.0,82,0.00,,,0.00,,2013-05-06 05:02:00,
2013-05-05 22:12:00,57.0,52.0,29.90,ENE,70,0.0,5.0,82,0.00,,,0.00,,2013-05-06 05:12:00,
2013-05-05 22:22:00,57.0,52.0,29.90,ESE,119,2.0,4.0,82,0.00,,,0.00,,2013-05-06 05:22:00,
2013-05-05 22:31:00,56.0,51.0,29.90,East,99,3.0,6.0,83,0.00,,,0.00,,2013-05-06 05:31:00,
2013-05-05 22:42:00,56.0,51.0,29.90,East,99,3.0,6.0,83,0.00,,,0.00,,2013-05-06 05:42:00,
2013-05-05 22:52:00,56.0,51.0,29.90,ENE,76,2.0,4.0,82,0.00,,,0.00,,2013-05-06 05:52:00,
2013-05-05 23:02:00,56.0,51.0,29.90,ENE,66,0.0,1.0,82,0.00,,,0.00,,2013-05-06 06:02:00,
2013-05-05 23:12:00,56.0,51.0,29.90,ENE,66,0.0,1.0,82,0.00,,,0.00,,2013-05-06 06:12:00,
2013-05-05 23:21:00,56.0,51.0,29.90,ENE,74,0.0,3.0,83,0.00,,,0.00,,2013-05-06 06:21:00,
2013-05-05 23:31:00,56.0,51.0,29.90,ESE,102,1.0,3.0,83,0.00,,,0.00,,2013-05-06 06:31:00,
2013-05-05 23:41:00,56.0,51.0,29.90,ESE,102,1.0,3.0,83,0.00,,,0.00,,2013-05-06 06:41:00,
2013-05-05 23:52:00,56.0,51.0,29.90,East,101,0.0,0.0,84,0.00,,,0.00,,2013-05-06 06:52:00,